Date String (YYYY-MM-DD hh:mm:ss) UTC,Instrument flags,Ambient pressure (hPa),Sample flow (lpm),Bypass flow (lpm),Sample temperature (°C),Ambient temperature (°C),ASC tube jacket temperature (°C),LED temperature (°C),Box temperature (°C),Sample RH (%),Mass concentration (μg/m³),Mass concentration (μg/m³)
DateTimeUTC,F1_M11,P_M11,Q1_M11,Q2_M11,T1_M11,T2_M11,T3_M11,T4_M11,T5_M11,U1_M11,X2_M11,X0_M11
2021-08-17 01:00:00,,0825.6,4.99,0.00,28.8,26.9,00.0,37.8,30.6,17.8,0024.47,0039.70
2021-08-17 01:01:00,,0825.6,5.01,0.00,28.8,27.3,00.0,37.8,30.7,17.8,0024.50,0040.28
2021-08-17 01:02:00,,0825.6,4.99,0.00,28.9,27.7,00.0,37.9,30.8,17.8,0024.49,0041.02
2021-08-17 01:03:00,,0825.7,4.99,0.00,29.0,28.0,00.0,37.9,30.9,17.7,0024.47,0041.03
2021-08-17 01:04:00,,0825.7,5.02,0.00,29.1,28.0,00.0,37.9,31.0,17.6,0024.46,0040.21
2021-08-17 01:05:00,,0825.7,5.00,0.00,29.0,26.5,00.0,37.9,30.5,17.7,0024.45,0040.11
2021-08-17 01:06:00,,0825.7,5.00,0.00,28.8,25.5,00.0,37.9,30.2,17.9,0024.42,0037.96
2021-08-17 01:07:00,,0825.7,5.01,0.00,28.8,25.8,00.0,37.9,30.3,18.0,0024.38,0036.87
2021-08-17 01:08:00,,0825.7,4.98,0.00,28.7,26.3,00.0,37.9,30.4,18.0,0024.36,0036.56
2021-08-17 01:09:00,,0825.7,5.01,0.00,28.8,26.7,00.0,37.9,30.5,18.1,0024.32,0036.00
2021-08-17 01:10:00,,0825.7,4.99,0.00,28.8,27.1,00.0,37.9,30.6,18.2,0024.37,0037.09
2021-08-17 01:11:00,,0825.7,5.01,0.00,28.9,27.5,00.0,37.9,30.8,18.2,0024.36,0038.04
2021-08-17 01:12:00,,0825.8,5.00,0.00,28.9,27.8,00.0,37.9,30.9,18.1,0024.37,0037.98
2021-08-17 01:13:00,,0826.1,4.99,0.00,29.0,28.1,00.0,37.9,31.0,18.1,0024.36,0037.13
2021-08-17 01:14:00,,0826.1,5.01,0.00,29.1,27.5,00.0,37.9,30.8,18.0,0024.37,0037.44
2021-08-17 01:15:00,,0826.0,4.99,0.00,28.9,25.8,00.0,37.9,30.3,18.2,0024.37,0037.38
2021-08-17 01:16:00,,0825.9,5.00,0.00,28.8,25.5,00.0,37.9,30.2,18.3,0024.38,0036.94
2021-08-17 01:17:00,,0825.7,5.00,0.00,28.7,25.9,00.0,37.9,30.3,18.4,0024.42,0037.11
2021-08-17 01:18:00,,0825.8,5.00,0.00,28.7,26.3,00.0,37.9,30.4,18.3,0024.44,0037.43
2021-08-17 01:19:00,,0826.0,5.00,0.00,28.8,26.8,00.0,37.9,30.6,18.2,0024.52,0037.66
2021-08-17 01:20:00,,0826.0,4.99,0.00,28.8,27.2,00.0,37.9,30.7,18.2,0024.62,0039.83
2021-08-17 01:21:00,,0826.4,5.00,0.00,28.9,27.5,00.0,37.9,30.8,18.1,0024.68,0039.67
2021-08-17 01:22:00,,0826.1,5.01,0.00,29.0,27.8,00.0,37.9,30.9,18.0,0024.71,0039.00
2021-08-17 01:23:00,,0826.0,4.99,0.00,29.0,28.1,00.0,37.9,31.0,17.9,0024.67,0038.86
2021-08-17 01:24:00,,0826.0,5.01,0.00,29.1,28.3,00.0,38.0,31.1,17.7,0024.72,0040.02
2021-08-17 01:25:00,,0826.3,4.99,0.00,29.1,27.1,00.0,38.0,30.7,17.7,0024.72,0040.13
2021-08-17 01:26:00,,0826.2,5.00,0.00,28.9,25.5,00.0,37.9,30.2,17.8,0024.69,0040.09
2021-08-17 01:27:00,,0826.2,5.00,0.00,28.8,25.6,00.0,37.9,30.3,17.9,0024.73,0040.47
2021-08-17 01:28:00,,0825.9,5.00,0.00,28.8,26.1,00.0,37.9,30.4,17.8,0024.71,0040.98
2021-08-17 01:29:00,,0826.1,5.00,0.00,28.8,26.5,00.0,37.9,30.5,17.9,0024.71,0040.85
2021-08-17 01:30:00,,0826.1,5.01,0.00,28.8,27.0,00.0,37.9,30.7,17.9,0024.68,0040.63
2021-08-17 01:31:00,,0826.0,4.99,0.00,28.9,27.4,00.0,37.9,30.8,17.7,0024.62,0038.68
2021-08-17 01:32:00,,0825.9,5.00,0.00,29.0,27.7,00.0,37.9,30.9,17.5,0024.60,0037.60
2021-08-17 01:33:00,,0825.9,5.00,0.00,29.0,28.0,00.0,38.0,31.0,17.5,0024.55,0037.39
2021-08-17 01:34:00,,0825.8,5.00,0.00,29.1,28.2,00.0,38.0,31.1,17.3,0024.56,0037.83
2021-08-17 01:35:00,,0825.8,5.00,0.00,29.2,28.1,00.0,38.0,31.1,17.1,0024.52,0037.18
2021-08-17 01:36:00,,0825.8,5.00,0.00,29.1,26.4,00.0,38.0,30.6,17.2,0024.61,0036.64
2021-08-17 01:37:00,,0825.8,5.00,0.00,28.9,25.4,00.0,38.0,30.2,17.3,0024.81,0037.81
2021-08-17 01:38:00,,0825.8,5.01,0.00,28.8,25.8,00.0,38.0,30.3,17.4,0024.88,0037.90
2021-08-17 01:39:00,,0825.8,4.99,0.00,28.8,26.2,00.0,37.9,30.4,17.4,0024.94,0037.78
2021-08-17 01:40:00,,0825.8,5.01,0.00,28.8,26.7,00.0,37.9,30.6,17.4,0024.96,0038.09
2021-08-17 01:41:00,,0825.8,5.00,0.00,28.9,27.1,00.0,37.9,30.7,17.3,0025.05,0039.15
2021-08-17 01:42:00,,0825.8,5.01,0.00,28.9,27.5,00.0,37.9,30.8,17.2,0025.08,0039.50
2021-08-17 01:43:00,,0825.8,5.00,0.00,29.0,27.8,00.0,38.0,30.9,17.1,0025.12,0039.44
2021-08-17 01:44:00,,0825.8,4.99,0.00,29.1,28.1,00.0,38.0,31.0,17.1,0025.18,0039.80
2021-08-17 01:45:00,,0825.8,4.99,0.00,29.1,28.3,00.0,38.0,31.1,17.0,0025.24,0040.55
2021-08-17 01:46:00,,0825.8,5.02,0.00,29.2,27.7,00.0,38.0,31.0,16.9,0025.30,0040.25
2021-08-17 01:47:00,,0825.9,5.00,0.00,29.0,25.8,00.0,38.0,30.4,17.1,0025.25,0040.37
2021-08-17 01:48:00,,0825.9,5.00,0.00,28.9,25.4,00.0,38.0,30.3,17.3,0025.12,0040.26
2021-08-17 01:49:00,,0826.0,5.00,0.00,28.8,25.8,00.0,38.0,30.3,17.5,0025.06,0040.13
2021-08-17 01:50:00,,0826.0,4.99,0.00,28.8,26.3,00.0,37.9,30.4,17.9,0025.00,0039.86
2021-08-17 01:51:00,,0826.0,5.00,0.00,28.8,26.8,00.0,37.9,30.6,18.0,0025.03,0040.36
2021-08-17 01:52:00,,0826.2,5.00,0.00,28.9,27.2,00.0,37.9,30.8,18.1,0024.97,0040.28
2021-08-17 01:53:00,,0826.0,5.00,0.00,28.9,27.5,00.0,38.0,30.9,18.0,0024.93,0039.91
2021-08-17 01:54:00,,0826.1,5.01,0.00,29.0,27.8,00.0,38.0,31.0,18.1,0024.92,0040.50
2021-08-17 01:55:00,,0826.2,5.00,0.00,29.1,28.1,00.0,38.0,31.1,18.1,0024.94,0040.48
2021-08-17 01:56:00,,0826.2,4.99,0.00,29.2,28.3,00.0,38.0,31.1,18.2,0024.93,0039.47
2021-08-17 01:57:00,,0826.0,5.01,0.00,29.2,28.5,00.0,38.1,31.2,18.0,0024.88,0038.98
2021-08-17 01:58:00,,0825.9,4.99,0.00,29.3,28.2,00.0,38.1,31.2,17.9,0024.89,0038.55
2021-08-17 01:59:00,,0825.8,5.02,0.00,29.2,26.4,00.0,38.1,30.7,18.0,0024.95,0037.58
